FW8389 Weather Reports


time (UTC)temp
F
wind
direction
speed
knots
gust
knots
rain 1hr
in
rain 24hr
in
rain mn
in
humidity
%
barometer
mb
20260506122703 36 350 2.6 5.2 0.00 0.00 0.00 76 1006.8
20260506121824 36 357 2.6 7.0 0.00 0.00 0.00 77 1006.6
20260506120903 36 355 2.6 5.2 0.00 0.00 0.00 78 1006.5
20260506120024 36 1 2.6 5.2 0.00 0.00 0.00 79 1006.5
20260506115403 36 360 3.5 7.8 0.00 0.00 0.00 79 1006.4
20260506114503 36 1 3.5 7.0 0.00 0.00 0.00 80 1006.2
20260506113603 35 8 2.6 6.1 0.00 0.00 0.00 81 1006.1
20260506112703 35 6 3.5 7.8 0.00 0.00 0.00 82 1006.0
20260506111803 35 5 2.6 5.2 0.00 0.00 0.00 83 1005.9
20260506110903 35 5 2.6 5.2 0.00 0.00 0.00 83 1005.8
20260506110003 35 3 2.6 5.2 0.00 0.00 0.00 83 1005.9
20260506105403 35 3 3.5 8.7 0.00 0.00 0.00 83 1005.8
20260506104524 35 2 3.5 7.8 0.00 0.00 0.00 83 1005.5
20260506103603 35 2 4.3 8.7 0.00 0.00 0.00 84 1005.3
20260506102703 36 357 3.5 7.8 0.00 0.00 0.00 84 1005.2
20260506101803 36 355 4.3 8.7 0.00 0.00 0.00 84 1005.1
20260506100903 36 5 4.3 8.7 0.00 0.00 0.00 83 1005.1
20260506100003 36 5 5.2 9.6 0.00 0.00 0.00 82 1005.1
20260506095424 36 2 4.3 9.6 0.00 0.00 0.00 81 1005.0
20260506094503 37 6 4.3 8.7 0.00 0.00 0.00 79 1005.1
20260506093603 37 8 6.1 11.3 0.00 0.00 0.00 78 1005.0
20260506092703 38 5 5.2 9.6 0.00 0.00 0.00 78 1004.9
20260506091824 38 358 4.3 10.4 0.00 0.00 0.00 77 1005.2
20260506090903 39 359 4.3 7.8 0.00 0.00 0.00 76 1005.4
20260506090003 40 15 2.6 7.8 0.00 0.00 0.00 76 1005.3
20260506085424 41 83 0.0 2.6 0.00 0.00 0.00 77 1005.0
20260506084503 41 84 0.0 0.9 0.00 0.00 0.00 74 1005.4
20260506083603 41 84 0.9 2.6 0.00 0.00 0.00 73 1005.2
20260506082703 42 84 0.9 2.6 0.00 0.00 0.00 73 1005.2
20260506081803 42 0 0.0 0.0 0.00 0.00 0.00 72 1005.5
20260506080903 42 0 0.0 0.0 0.00 0.00 0.00 72 1005.5
20260506072703 42 0 0.0 0.0 0.00 0.00 0.00 72 1004.9
20260506071803 42 84 0.0 1.7 0.00 0.00 0.00 71 1005.2
20260506070903 42 84 0.0 1.7 0.00 0.00 0.00 70 1005.0
20260506061803 42 85 0.9 2.6 0.00 0.01 0.00 70 1005.4
20260506060903 41 86 0.9 1.7 0.00 0.02 0.00 71 1005.4
20260506050903 42 88 0.9 2.6 0.00 0.02 0.00 71 1005.8
20260506044503 42 90 0.9 3.5 0.00 0.02 0.00 71 1005.6
20260506043603 42 95 0.9 3.5 0.00 0.02 0.00 71 1005.6
20260506042724 41 98 0.9 2.6 0.00 0.02 0.00 72 1005.4
20260506041803 41 99 1.7 3.5 0.00 0.02 0.00 72 1005.5
20260506040903 40 99 1.7 2.6 0.00 0.02 0.00 73 1005.5
20260506040003 40 99 1.7 2.6 0.00 0.02 0.00 73 1005.6
20260506035403 40 99 1.7 2.6 0.00 0.02 0.02 73 1005.5
20260506034503 40 99 1.7 2.6 0.00 0.02 0.02 73 1005.4
20260506033603 40 99 1.7 2.6 0.00 0.02 0.02 73 1005.3
20260506032703 40 94 1.7 3.5 0.00 0.02 0.02 73 1005.4
20260506031803 40 89 0.0 2.6 0.00 0.02 0.02 74 1005.4
20260506030924 40 0 0.0 0.0 0.00 0.02 0.02 74 1005.6
20260506030003 39 0 0.0 0.0 0.00 0.02 0.02 75 1005.6
20260506025403 40 0 0.0 0.0 0.00 0.02 0.02 75 1005.7
20260506024503 40 88 0.0 1.7 0.00 0.02 0.02 75 1005.6
20260506023603 40 0 0.0 0.0 0.00 0.02 0.02 75 1005.7
20260506022703 40 0 0.0 0.0 0.00 0.02 0.02 76 1005.8
20260506021803 40 88 0.9 2.6 0.00 0.02 0.02 76 1005.9
20260506020903 40 88 0.9 2.6 0.00 0.02 0.02 75 1005.9
20260506020003 40 88 0.9 1.7 0.00 0.02 0.02 75 1005.8
20260506015403 40 88 0.0 1.7 0.00 0.02 0.02 74 1005.7
20260506014503 40 0 0.0 0.0 0.00 0.02 0.02 75 1005.7
20260506013603 40 87 0.9 1.7 0.00 0.02 0.02 75 1005.6
20260506012703 40 87 0.9 2.6 0.00 0.02 0.02 75 1005.4
20260506011803 40 86 0.9 1.7 0.00 0.02 0.02 74 1005.4
20260506010903 40 0 0.0 0.0 0.00 0.02 0.02 74 1005.3
20260506010003 41 0 0.0 0.0 0.00 0.02 0.02 73 1005.1
20260506005424 41 0 0.0 0.0 0.00 0.02 0.02 73 1005.1
20260506004504 41 0 0.0 0.0 0.00 0.02 0.02 72 1005.1
20260506003603 41 0 0.0 0.0 0.00 0.02 0.02 72 1005.1
20260506002724 42 0 0.0 0.0 0.00 0.02 0.02 72 1005.0
20260506001803 42 85 0.0 2.6 0.00 0.02 0.02 71 1004.9
20260506000903 42 86 0.0 2.6 0.00 0.02 0.02 71 1004.9
20260506000024 42 86 0.0 2.6 0.00 0.02 0.02 70 1004.9
20260505235403 42 85 0.9 2.6 0.00 0.02 0.02 70 1004.8
20260505234503 42 84 0.9 3.5 0.00 0.02 0.02 70 1004.8
20260505233603 42 74 0.9 4.3 0.00 0.02 0.02 69 1004.8
20260505232703 42 57 1.7 4.3 0.00 0.02 0.02 69 1004.8
20260505231803 43 65 1.7 3.5 0.00 0.02 0.02 69 1004.8
20260505230903 43 51 1.7 3.5 0.00 0.02 0.02 69 1004.8
20260505230003 43 48 2.6 3.5 0.00 0.02 0.02 68 1004.9
20260505225403 43 36 2.6 4.3 0.00 0.02 0.02 68 1004.9
20260505224503 44 13 3.5 7.8 0.00 0.02 0.02 67 1004.8
20260505223603 44 14 3.5 7.0 0.00 0.02 0.02 68 1004.9
20260505222703 44 7 4.3 7.8 0.00 0.02 0.02 68 1005.0
20260505221803 44 13 4.3 7.8 0.00 0.02 0.02 67 1005.0
20260505220903 44 14 4.3 9.6 0.00 0.02 0.02 67 1005.0
20260505220003 44 18 4.3 8.7 0.00 0.02 0.02 67 1004.8
20260505215424 44 16 4.3 8.7 0.00 0.02 0.02 67 1004.9
20260505214503 45 18 3.5 7.8 0.00 0.02 0.02 67 1004.8
20260505213603 45 8 5.2 9.6 0.00 0.02 0.02 66 1004.8
20260505212724 45 9 5.2 9.6 0.00 0.02 0.02 65 1004.7
20260505211803 45 6 6.1 9.6 0.00 0.02 0.02 64 1004.6
20260505210903 46 7 5.2 9.6 0.00 0.02 0.02 64 1004.6
20260505210024 46 7 6.1 9.6 0.00 0.02 0.02 65 1004.4
20260505205403 46 6 4.3 9.6 0.00 0.02 0.02 63 1004.3
20260505204503 47 5 5.2 8.7 0.00 0.02 0.02 64 1004.4
20260505203603 48 333 5.2 17.4 0.00 0.02 0.02 61 1004.2
20260505202703 50 268 9.6 17.4 0.00 0.02 0.02 58 1004.2
20260505201803 50 275 10.4 19.1 0.00 0.02 0.02 58 1004.1
20260505200924 50 280 8.7 13.9 0.00 0.02 0.02 58 1004.1
20260505200003 50 288 7.0 15.6 0.00 0.02 0.02 58 1004.0
20260505195403 49 267 6.1 13.0 0.00 0.02 0.02 59 1003.7
20260505194503 48 266 5.2 10.4 0.00 0.02 0.02 61 1003.7
20260505193603 48 265 4.3 12.2 0.00 0.02 0.02 60 1003.7
20260505192703 48 270 6.1 12.2 0.00 0.02 0.02 60 1003.7
20260505191803 48 268 6.1 12.2 0.00 0.02 0.02 62 1003.8
20260505190903 48 266 6.1 13.0 0.00 0.02 0.02 63 1003.7
20260505190003 47 272 7.0 12.2 0.00 0.02 0.02 63 1003.7
20260505185424 47 278 7.8 12.2 0.00 0.02 0.02 62 1003.6
20260505184503 47 278 7.0 12.2 0.00 0.02 0.02 62 1003.4
20260505183603 47 267 7.8 12.2 0.00 0.02 0.02 62 1003.4
20260505182703 47 266 7.8 13.0 0.00 0.02 0.02 62 1003.3
20260505181824 46 266 7.8 13.0 0.00 0.02 0.02 62 1003.2
20260505180903 47 269 7.0 13.9 0.00 0.02 0.02 61 1003.2
20260505180003 46 261 7.0 14.8 0.00 0.02 0.02 60 1002.9
20260505175424 46 264 7.0 12.2 0.00 0.02 0.02 61 1002.8
20260505174503 46 262 7.0 13.9 0.00 0.02 0.02 64 1002.9
20260505173603 46 263 7.0 12.2 0.00 0.02 0.02 63 1002.8
20260505172703 46 272 8.7 13.9 0.00 0.02 0.02 64 1002.5
20260505171803 46 286 7.8 13.0 0.00 0.02 0.02 62 1002.6
20260505170903 46 283 7.8 14.8 0.00 0.02 0.02 64 1002.5
20260505170003 46 278 7.8 13.9 0.00 0.02 0.02 63 1002.4
20260505165403 47 295 6.1 11.3 0.00 0.02 0.02 62 1002.2
20260505164524 47 288 7.0 13.0 0.00 0.02 0.02 61 1002.0
20260505163603 47 285 8.7 13.9 0.00 0.02 0.02 61 1002.3
20260505162703 48 290 7.0 14.8 0.00 0.02 0.02 60 1002.0
20260505161803 48 282 7.0 13.9 0.00 0.02 0.02 63 1001.9
20260505160903 48 281 5.2 10.4 0.00 0.02 0.02 67 1001.9
20260505152703 48 298 6.1 11.3 0.00 0.02 0.02 68 1001.7
20260505151803 48 303 6.1 13.9 0.00 0.02 0.02 69 1001.5
20260505150903 47 287 7.0 13.9 0.00 0.02 0.02 69 1001.4
20260505124503 45 278 3.5 7.0 0.00 0.02 0.02 84 999.3
20260505123603 45 278 4.3 8.7 0.00 0.02 0.02 85 999.3